This demonstration page uses our WeatherBlox Daily Observations layout. Learn more.

Left ArrowRight Arrow

40.92945, -100.16068

Hourly Observations for September 5, 2017

Temp ( °F °C ) Dew Point ( °F °C ) Humidity (%) Winds ( mph kmh ) Pressure ( in mb ) Visibility ( mi km ) Precip ( " mm )
12:15 am 00:15 Clear 52 11.3 48 9 86 86 NNW 6 9 30.27 1025 10 16 0.00 0.00
12:35 am 00:35 Clear 54 12 48 8.8 81 81 NNW 8 13 30.27 1025 10 16 0.00 0.00
12:55 am 00:55 Clear 53 11.7 47 8.6 81 81 NNW 6 9 30.27 1025 10 16 0.00 0.00
1:15 am 01:15 Clear 52 11.1 47 8.5 84 84 NW 6 9 30.27 1025 10 16 0.00 0.00
1:35 am 01:35 Mostly Cloudy 51 10.7 47 8.5 86 86 WNW 5 7 30.27 1025 10 16 0.00 0.00
1:55 am 01:55 Cloudy 52 11.1 48 9 87 87 WNW 5 7 30.27 1025 10 16 0.00 0.00
2:15 am 02:15 Mostly Cloudy 53 11.5 48 9 85 85 W 6 9 30.27 1025 10 16 0.00 0.00
2:35 am 02:35 Mostly Cloudy 52 11.2 48 9 86 86 W 6 9 30.27 1025 10 16 0.00 0.00
2:55 am 02:55 Partly Cloudy 51 10.5 47 8.4 87 87 WNW 6 9 30.27 1025 10 16 0.00 0.00
3:15 am 03:15 Clear 49 9.6 46 7.7 88 88 WNW 6 9 30.27 1025 10 16 0.00 0.00
3:35 am 03:35 Clear 48 9.1 45 7.4 89 89 NW 6 9 30.27 1025 10 16 0.00 0.00
3:55 am 03:55 Clear 47 8.6 45 7.2 91 91 W 7 11 30.30 1026 10 16 0.00 0.00
4:15 am 04:15 Clear 48 8.7 45 7.4 92 92 WNW 6 9 30.30 1026 10 16 0.00 0.00
4:35 am 04:35 Partly Cloudy 48 8.7 45 7.2 90 90 WNW 7 11 30.30 1026 10 16 0.00 0.00
4:55 am 04:55 Cloudy 48 8.9 46 7.5 91 91 W 6 9 30.30 1026 10 16 0.00 0.00
5:15 am 05:15 Mostly Cloudy 49 9.3 46 7.5 89 89 WNW 8 13 30.33 1027 10 16 0.00 0.00
5:35 am 05:35 Partly Cloudy 49 9.3 45 7.2 87 87 WNW 9 15 30.33 1027 10 16 0.00 0.00
5:55 am 05:55 Clear 47 8.5 44 6.7 89 89 W 6 9 30.33 1027 10 16 0.00 0.00
6:15 am 06:15 Clear 47 8.2 44 6.6 90 90 W 7 11 30.33 1027 10 16 0.00 0.00
6:35 am 06:35 Clear 46 7.8 43 6.2 90 90 W 6 9 30.33 1027 10 16 0.00 0.00
6:55 am 06:55 Clear 47 8.2 43 6.2 87 87 WNW 7 11 30.33 1027 10 16 0.00 0.00
7:15 am 07:15 Sunny 46 7.7 43 6 89 89 WNW 9 15 30.36 1028 10 16 0.00 0.00
7:35 am 07:35 Sunny 47 8.2 43 6 86 86 WNW 8 13 30.36 1028 10 16 0.00 0.00
7:55 am 07:55 Sunny 47 8.5 43 6.1 85 85 WNW 7 11 30.36 1028 10 16 0.00 0.00
8:15 am 08:15 Sunny 48 9 43 6.3 83 83 NW 7 11 30.36 1028 10 16 0.00 0.00
8:35 am 08:35 Sunny 50 9.8 44 6.5 80 80 NW 8 13 30.33 1027 10 16 0.00 0.00
8:55 am 08:55 Sunny 51 10.5 44 6.8 78 78 NW 7 11 30.33 1027 10 16 0.00 0.00
9:15 am 09:15 Sunny 53 11.8 45 7.4 75 75 NW 8 13 30.33 1027 10 16 0.00 0.00
9:35 am 09:35 Sunny 55 13 46 7.6 70 70 NW 8 13 30.30 1026 10 16 0.00 0.00
9:55 am 09:55 Sunny 58 14.4 46 8 66 66 NW 7 11 30.30 1026 10 16 0.00 0.00
10:15 am 10:15 Sunny 61 16 47 8.3 60 60 NW 6 9 30.30 1026 10 16 0.00 0.00
10:35 am 10:35 Sunny 64 17.5 45 7.1 51 51 NNW 8 13 30.27 1025 10 16 0.00 0.00
10:55 am 10:55 Sunny 65 18.5 45 7.2 48 48 NW 7 11 30.27 1025 10 16 0.00 0.00
11:15 am 11:15 Sunny 66 19 44 6.8 45 45 NNW 13 20 30.27 1025 10 16 0.00 0.00
11:35 am 11:35 Sunny 67 19.5 40 4.5 37 37 N 15 24 30.24 1024 10 16 0.00 0.00
11:55 am 11:55 Sunny 67 19.7 39 3.9 35 35 N 14 22 30.24 1024 10 16 0.00 0.00
12:15 pm 12:15 Sunny 67 19.7 39 3.8 35 35 N 15 24 30.24 1024 10 16 0.00 0.00
12:35 pm 12:35 Sunny 68 19.9 40 4.3 36 36 N 16 26 30.24 1024 10 16 0.00 0.00
12:55 pm 12:55 Sunny 69 20.3 40 4.4 35 35 NNW 12 19 30.21 1023 10 16 0.00 0.00
1:15 pm 13:15 Sunny 69 20.5 38 3.6 33 33 N 13 20 30.21 1023 10 16 0.00 0.00
1:35 pm 13:35 Sunny 70 20.9 40 4.2 34 34 NNW 13 20 30.21 1023 10 16 0.00 0.00
1:55 pm 13:55 Sunny 69 20.8 38 3.5 32 32 N 13 20 30.21 1023 10 16 0.00 0.00
2:15 pm 14:15 Sunny 70 21.1 38 3.6 32 32 N 10 17 30.21 1023 10 16 0.00 0.00
2:35 pm 14:35 Sunny 70 21.2 39 3.7 32 32 N 17 28 30.18 1022 10 16 0.00 0.00
2:55 pm 14:55 Sunny 71 21.6 39 4 32 32 N 12 19 30.18 1022 10 16 0.00 0.00
3:15 pm 15:15 Sunny 71 21.9 40 4.3 32 32 N 12 19 30.18 1022 10 16 0.00 0.00
3:35 pm 15:35 Sunny 72 22 39 3.8 30 30 NNW 10 17 30.15 1021 10 16 0.00 0.00
3:55 pm 15:55 Sunny 71 21.9 38 3.3 30 30 N 14 22 30.15 1021 10 16 0.00 0.00
4:15 pm 16:15 Sunny 71 21.9 38 3.3 30 30 N 12 19 30.15 1021 10 16 0.00 0.00
4:35 pm 16:35 Sunny 72 22 38 3.2 29 29 N 15 24 30.15 1021 10 16 0.00 0.00
4:55 pm 16:55 Sunny 72 22 39 4 31 31 N 10 17 30.15 1021 10 16 0.00 0.00
5:15 pm 17:15 Sunny 71 21.7 38 3.1 30 30 N 13 20 30.15 1021 10 16 0.00 0.00
5:35 pm 17:35 Sunny 71 21.5 36 2.3 28 28 N 10 17 30.12 1020 10 16 0.00 0.00
5:55 pm 17:55 Sunny 70 21.3 37 2.6 29 29 NNW 12 19 30.12 1020 10 16 0.00 0.00
6:20 pm 18:20 Sunny 70 21 37 2.9 30 30 N 8 13 30.12 1020 10 16 0.00 0.00
6:35 pm 18:35 Sunny 68 20.2 39 3.7 34 34 N 8 13 30.12 1020 10 16 0.00 0.00
6:55 pm 18:55 Sunny 67 19.5 40 4.6 38 38 N 7 11 30.12 1020 10 16 0.00 0.00
7:15 pm 19:15 Sunny 66 18.8 42 5.3 41 41 N 6 9 30.12 1020 10 16 0.00 0.00
7:35 pm 19:35 Sunny 63 17.3 44 6.6 50 50 N 6 9 30.15 1021 10 16 0.00 0.00
7:55 pm 19:55 Sunny 61 16.1 44 6.8 54 54 NNE 6 9 30.15 1021 10 16 0.00 0.00
8:15 pm 20:15 Clear 59 14.9 46 7.9 63 63 NNE 5 7 30.18 1022 10 16 0.00 0.00
8:35 pm 20:35 Clear 56 13.5 47 8.3 71 71 NNE 3 6 30.18 1022 10 16 0.00 0.00
8:55 pm 20:55 Clear 53 11.8 45 7.1 73 73 ENE 3 6 30.24 1024 10 16 0.00 0.00
9:15 pm 21:15 Clear 56 13.5 43 6.3 62 62 Calm 30.21 1023 10 16 0.00 0.00
9:35 pm 21:35 Clear 53 11.5 46 7.6 77 77 Calm 30.24 1024 10 16 0.00 0.00
9:55 pm 21:55 Clear 51 10.7 45 7.1 79 79 Calm 30.24 1024 10 16 0.00 0.00
10:15 pm 22:15 Clear 50 10.2 44 6.6 79 79 Calm 30.24 1024 7 11 0.00 0.00
10:35 pm 22:35 Clear 50 9.9 45 7 82 82 Calm 30.24 1024 7 11 0.00 0.00
10:55 pm 22:55 Clear 48 8.8 42 5.7 81 81 WNW 3 6 30.27 1025 10 16 0.00 0.00
11:15 pm 23:15 Clear 47 8.4 42 5.7 83 83 WNW 5 7 30.27 1025 10 16 0.00 0.00
11:35 pm 23:35 Clear 46 7.9 42 5.8 87 87 Calm 30.30 1026 10 16 0.00 0.00
11:55 pm 23:55 Clear 47 8.4 43 5.9 84 84 Calm 30.30 1026 10 16 0.00 0.00

Powered by AerisWeather